Theta_e
317 316 316 317 318 319 318 318 319 316 315 314 315 316 317 318 318 317 315 313 312 311 309 308 305 303 304 301 299 297 297 296 296 296 295 295 295 294 294 293 293 292 292 292
319 316 315 316 316 316 318 318 318 317 317 317 315 315 316 316 316 315 314 313 311 310 308 306 303 302 300 299 297 297 296 295 295 296 295 294 294 293 293 293 292 292 291 291
318 313 314 319 317 317 316 317 317 318 317 316 315 315 315 315 315 315 314 312 310 308 305 303 301 299 298 297 297 295 294 294 294 293 293 293 293 292 292 292 292 290 290 289
319 311 324 314 312 313 316 317 316 315 315 314 315 315 315 315 315 314 312 311 309 305 302 301 299 298 299 297 295 293 293 293 293 293 293 293 292 292 292 292 290 290 289 289
324 315 314 313 311 311 313 314 315 315 315 314 314 314 315 313 313 313 312 310 307 303 302 298 299 298 297 296 293 292 293 293 293 293 292 292 292 291 291 289 289 289 288 288
315 328 329 314 313 313 314 316 314 315 315 315 314 318 313 313 312 312 310 307 303 300 299 297 297 299 296 294 293 293 293 292 292 292 292 291 291 290 290 290 289 288 288 288
318 324 317 312 310 313 315 314 313 314 315 314 315 315 313 313 311 309 307 302 299 297 298 298 299 295 293 293 292 292 290 290 292 291 291 291 290 290 289 289 289 287 287 287
315 323 322 310 313 317 316 315 312 314 314 314 314 311 310 311 308 304 300 297 297 300 298 299 295 293 292 292 292 290 289 290 291 291 291 290 290 289 289 289 288 287 286 286
317 317 313 311 314 314 313 313 313 313 313 312 313 310 308 307 303 300 298 300 299 297 296 295 292 290 290 292 290 289 289 289 291 291 290 289 289 289 288 288 287 286 286 285
314 314 313 312 312 312 312 312 312 312 312 312 312 310 306 302 299 298 298 297 298 297 294 292 290 290 290 290 289 289 289 290 290 290 290 289 289 288 288 287 287 286 285 285
314 313 312 311 311 312 313 313 312 312 311 311 311 306 300 298 298 297 298 297 296 293 291 290 290 290 289 289 289 289 289 290 290 290 289 289 289 288 287 287 286 286 285 284
316 311 312 313 312 311 312 312 311 308 306 305 304 299 298 297 298 297 296 294 294 294 290 290 290 289 290 289 289 289 289 289 290 289 289 288 288 288 287 286 285 285 284 283
313 312 312 311 307 308 306 305 303 302 301 300 298 298 298 296 295 294 293 293 291 290 290 290 289 290 290 290 290 289 289 289 289 289 288 288 288 288 287 287 286 285 284 283
310 310 311 304 303 302 302 300 299 297 298 298 297 296 295 294 293 294 292 290 290 290 290 289 290 290 290 290 290 289 289 289 288 288 288 287 287 287 287 286 286 286 285 284
303 304 303 301 300 298 297 298 298 297 297 296 296 295 294 294 293 291 290 290 290 290 290 290 290 290 290 290 290 289 289 289 288 288 287 287 287 287 287 286 285 285 285 284
302 301 300 299 297 298 298 298 298 297 296 295 295 294 293 291 290 290 290 290 290 290 290 290 290 290 290 290 290 290 290 289 288 287 287 287 287 286 286 286 286 285 285 284
299 298 298 298 298 298 298 297 297 297 296 295 293 291 290 290 290 290 290 290 290 290 290 290 290 291 290 290 290 290 290 289 288 287 286 286 286 286 286 286 286 286 285 284
300 299 299 298 297 297 296 295 293 292 291 290 290 290 290 290 290 290 290 290 290 290 290 289 289 290 291 291 291 291 290 288 288 287 286 286 285 285 285 286 286 286 285 284
298 298 297 297 296 294 292 291 290 290 290 290 290 290 290 290 290 290 290 290 290 290 290 290 289 289 289 290 290 290 290 288 287 287 286 286 286 285 285 285 286 286 285 285
295 294 292 291 291 290 290 290 290 291 291 290 290 290 290 291 291 291 291 290 290 290 289 290 289 289 289 289 288 289 288 287 286 285 285 285 285 285 285 285 285 286 286 285
291 291 291 290 290 290 290 290 290 290 290 291 291 291 291 290 288 286 285 285 286 287 288 287 287 288 289 288 288 288 287 286 285 285 285 285 285 285 285 285 285 285 285 285
291 291 291 291 291 290 291 291 291 291 289 288 286 285 284 284 283 283 284 285 285 285 285 285 286 286 287 287 287 286 285 285 285 285 285 285 285 284 284 284 284 284 284 285
292 291 291 291 292 291 290 288 286 285 284 284 283 282 282 281 282 283 282 283 283 284 285 285 286 286 286 286 286 285 285 284 284 283 283 282 282 282 282 283 283 284 284 284
292 292 292 291 289 287 287 285 284 283 283 281 280 280 280 279 279 280 280 280 281 281 283 285 285 285 285 285 284 284 284 283 282 282 281 281 281 281 281 281 281 282 283 283
291 290 288 287 286 285 284 283 282 281 280 279 279 278 278 277 277 278 277 278 279 280 282 283 283 283 283 282 282 282 281 281 280 280 280 280 280 280 280 280 281 281 281 282
288 287 286 285 283 283 281 280 279 278 278 277 277 276 276 276 276 276 276 277 278 278 279 279 280 280 279 280 279 279 279 279 279 279 279 279 278 279 279 279 279 280 280 281
286 285 283 282 281 280 279 278 278 277 277 276 275 275 274 274 274 274 275 276 276 276 276 276 277 277 277 277 277 277 277 277 277 277 277 277 277 277 277 278 278 278 278 279
Wind_Speed
2 0 3 4 8 13 15 14 8 11 11 11 5 9 11 13 17 20 21 21 20 19 17 15 14 14 7 7 6 6 7 9 10 10 12 11 14 16 18 18 17 16 15 13
3 2 2 7 8 10 15 16 15 19 20 15 10 9 10 14 18 22 22 22 20 18 16 15 14 10 9 7 5 10 11 10 9 10 11 13 15 17 17 16 16 15 15 9
2 2 3 6 15 18 13 12 15 14 16 3 6 10 12 15 19 22 22 21 19 17 15 14 12 10 6 5 10 12 11 9 9 13 12 14 16 16 15 15 15 14 13 11
1 2 3 1 1 3 12 16 15 17 10 7 4 5 7 13 17 19 20 20 18 16 17 16 12 8 8 9 12 13 9 9 10 11 13 15 15 15 15 15 14 13 12 9
2 4 6 12 3 3 3 6 4 12 8 5 3 4 10 11 15 18 19 18 16 15 15 14 9 10 8 12 11 11 9 10 11 13 15 14 14 15 14 16 14 12 12 10
3 3 4 3 4 1 2 5 3 3 4 7 6 4 5 10 15 16 16 16 17 17 17 12 8 10 12 9 9 9 10 12 12 14 14 13 14 16 14 14 12 13 11 9
3 4 6 1 1 3 2 3 1 2 4 9 6 6 2 8 14 15 16 17 17 17 13 10 9 12 11 8 9 10 14 15 14 14 13 14 15 15 15 14 13 14 13 12
3 3 4 6 6 3 4 4 3 4 5 9 7 5 4 10 14 15 16 16 13 12 10 10 10 11 8 8 9 14 16 17 16 14 13 16 17 16 14 12 12 12 14 16
6 1 3 7 7 3 5 9 9 7 6 8 9 7 8 13 17 18 17 17 14 6 7 8 10 11 10 9 14 17 18 18 14 12 14 15 16 14 14 12 14 13 14 15
2 2 5 7 8 10 11 13 12 12 12 12 11 10 12 15 17 18 13 12 6 4 10 9 11 12 12 15 16 17 17 15 13 13 15 15 14 13 13 13 13 13 14 15
4 8 6 4 4 8 11 11 9 7 7 6 7 10 13 15 15 14 13 10 6 7 10 11 12 13 15 16 17 18 16 16 14 13 14 15 14 14 14 14 14 12 13 15
2 5 5 6 12 11 10 8 5 2 6 7 9 14 18 18 15 12 4 1 6 10 12 13 14 14 15 16 17 17 18 16 14 14 15 16 16 15 17 20 19 19 17 16
4 11 7 6 8 9 7 8 10 14 15 19 19 21 19 17 12 5 2 6 10 12 13 14 14 15 15 17 19 19 20 18 15 17 18 18 18 19 20 17 20 21 20 18
5 7 3 11 8 11 14 16 16 19 22 24 23 20 15 10 5 3 7 11 13 14 14 15 16 15 17 19 20 21 20 19 18 17 19 20 20 21 22 20 18 19 19 19
7 8 10 11 11 13 15 20 24 24 21 19 15 12 8 3 4 8 10 12 14 15 16 17 18 18 19 21 22 21 20 17 18 22 21 23 25 23 23 22 19 18 17 18
9 10 11 14 17 20 21 19 19 16 12 9 5 0 4 7 8 10 11 13 15 16 17 20 23 23 24 24 23 23 19 21 23 20 20 23 26 25 23 24 21 20 19 17
14 14 19 22 20 17 15 13 9 5 2 2 5 7 7 9 10 11 12 14 17 19 21 24 26 25 27 28 28 24 21 20 21 25 22 19 19 22 23 24 25 22 20 20
16 20 18 17 15 10 5 3 2 4 5 6 6 7 8 10 12 15 17 19 21 24 24 25 26 27 28 28 29 31 30 26 25 25 26 22 22 22 22 23 25 24 22 20
17 14 10 7 5 4 3 4 5 5 6 6 6 8 11 13 17 20 23 26 27 29 27 28 28 28 28 29 28 29 29 27 27 25 26 26 25 24 23 23 24 24 25 23
10 8 5 5 4 4 4 4 4 4 5 8 11 15 18 20 23 26 29 33 32 31 31 32 30 30 27 24 25 27 27 23 23 23 24 22 22 25 23 22 22 24 24 23
7 6 5 4 4 4 4 4 4 6 9 13 17 20 24 28 29 29 30 32 29 24 25 30 30 28 24 26 26 26 22 19 22 24 24 23 23 23 23 25 23 21 22 23
5 4 3 3 2 2 2 3 6 10 15 18 20 22 25 27 29 31 28 27 27 28 29 31 28 27 26 28 28 20 17 20 21 22 22 22 21 22 22 22 22 23 23 23
4 3 2 2 1 2 5 9 14 17 18 21 23 26 28 28 23 26 33 29 28 29 30 30 29 29 26 24 24 20 21 22 22 21 22 22 23 23 24 24 24 24 24 23
3 2 1 1 3 7 11 15 18 19 22 23 24 26 26 29 30 23 25 30 30 31 30 30 32 30 24 22 23 22 21 19 18 17 18 18 18 18 18 20 19 22 21 22
3 2 1 4 7 11 15 18 20 20 23 24 24 23 25 24 25 31 32 31 31 28 27 27 28 27 23 21 20 18 15 14 14 14 14 15 15 15 16 16 16 17 18 17
3 1 4 8 10 14 17 20 21 22 25 24 24 26 27 27 24 26 27 27 25 23 25 25 23 20 19 17 15 13 12 12 12 12 13 14 15 15 15 16 16 15 14 14
2 4 7 9 13 15 18 20 22 24 25 26 29 28 25 23 23 21 22 22 22 20 19 19 19 18 16 14 13 13 12 13 14 14 14 15 16 17 17 17 16 15 14 14
Wind_Direction
218 138 241 257 226 204 215 234 224 267 258 271 257 238 235 221 206 200 195 192 191 188 185 182 180 187 231 178 193 245 283 293 289 287 290 286 300 305 308 310 311 314 314 297
225 224 276 266 244 233 233 246 250 263 269 283 260 253 220 206 202 202 199 196 193 190 186 186 187 187 183 185 238 286 295 296 283 275 274 290 299 306 307 308 310 308 309 302
240 356 277 276 241 227 228 228 236 251 262 215 212 223 219 213 208 207 202 196 193 190 188 184 180 173 181 222 277 293 296 287 279 279 288 296 301 305 306 306 303 303 298 290
149 226 224 339 161 283 251 255 248 260 261 265 268 240 247 225 214 206 200 195 192 188 186 183 174 184 248 263 288 297 291 281 278 281 289 296 299 306 309 300 299 296 299 285
179 221 314 280 198 231 217 293 276 254 261 231 227 261 251 219 210 205 197 192 189 184 185 172 197 220 254 275 282 287 279 278 280 285 291 294 299 304 305 296 300 286 282 260
152 221 250 48 69 166 225 274 1 245 210 198 187 256 337 202 193 188 187 181 173 172 179 171 211 260 262 269 273 273 274 286 286 289 291 293 296 304 302 291 292 293 287 246
177 238 279 291 219 161 247 18 19 221 194 181 210 264 282 179 183 185 177 170 168 170 175 190 236 254 277 270 274 275 291 295 292 290 292 292 298 302 296 287 284 284 281 263
142 202 269 159 146 230 10 337 308 288 259 236 257 260 203 164 167 163 156 155 158 172 184 226 244 277 277 276 274 292 299 299 296 291 290 293 295 296 291 285 280 280 280 279
216 223 111 192 276 308 323 298 300 292 294 273 244 216 180 165 162 160 155 162 158 188 243 263 284 290 293 283 297 304 306 304 299 292 293 299 294 290 292 282 279 282 278 276
237 146 243 262 286 292 300 291 294 282 282 282 256 210 178 158 154 150 140 143 130 202 248 278 297 300 298 302 308 309 307 304 298 293 291 301 298 287 287 275 271 276 274 269
248 285 299 83 24 348 333 327 313 302 299 275 204 174 161 146 142 139 144 127 205 269 296 296 299 302 306 309 312 312 308 307 300 299 302 298 296 288 280 269 264 276 277 273
272 5 328 323 339 334 329 332 342 34 65 89 135 138 136 129 127 101 101 4 331 293 294 299 300 305 305 310 316 314 310 300 297 298 298 295 292 290 293 285 274 283 295 291
294 315 317 330 21 20 45 63 84 96 101 106 106 118 114 98 88 92 11 302 291 291 292 295 299 303 308 312 313 312 310 294 299 297 295 299 295 287 283 288 285 284 289 288
360 345 158 37 64 69 85 94 102 104 109 107 98 84 81 82 65 341 291 290 294 295 296 300 302 304 304 307 311 311 306 302 299 295 296 296 299 293 283 284 279 272 282 284
36 61 98 106 97 94 102 111 105 101 96 91 85 81 80 60 298 283 284 297 301 302 305 303 298 297 298 303 305 302 300 294 291 301 295 294 297 295 283 283 276 271 276 278
94 99 109 106 109 114 114 106 98 92 90 91 92 186 283 301 311 311 308 309 307 307 307 303 299 299 292 294 297 294 290 290 298 306 304 290 289 293 287 274 279 271 271 272
112 112 116 115 115 110 101 100 98 98 97 337 325 329 324 320 322 323 320 315 313 311 311 309 310 306 292 288 291 290 282 280 281 297 302 295 287 288 286 278 278 268 269 273
120 114 110 103 111 115 109 107 37 355 347 347 345 339 337 337 330 324 320 316 314 311 311 312 306 302 296 290 288 290 287 283 289 292 291 294 296 298 290 282 278 273 270 271
113 116 114 108 100 81 52 27 18 9 1 2 353 343 333 328 322 316 312 308 306 307 311 311 309 304 297 288 284 291 293 290 290 292 290 287 289 297 297 290 280 278 275 272
111 111 108 88 75 72 60 49 45 37 2 340 331 322 314 309 307 308 307 304 305 305 306 304 304 303 301 297 295 290 293 291 292 295 299 294 287 291 292 293 286 281 276 276
116 108 92 75 63 50 37 27 2 336 322 314 312 313 313 314 313 315 315 312 317 315 302 307 310 305 296 300 298 292 292 288 296 299 296 291 289 292 293 294 291 286 282 282
121 112 103 95 85 68 41 347 325 318 317 319 321 322 323 324 322 320 320 318 317 316 314 315 313 308 296 295 288 290 290 295 300 296 293 295 296 296 294 293 292 290 289 288
136 125 116 131 114 355 334 330 335 336 335 333 332 331 329 326 325 322 320 321 314 310 311 317 314 313 306 288 280 284 291 299 300 297 293 292 291 289 286 279 283 289 289 290
158 157 145 14 339 328 333 336 337 336 334 334 330 329 329 327 322 324 317 319 316 315 308 310 315 314 304 289 280 281 290 299 303 305 308 308 307 305 303 293 285 271 277 285
185 199 291 326 333 337 336 336 338 334 331 331 332 331 326 326 320 322 324 322 321 322 319 310 312 313 298 292 288 288 292 298 304 311 318 322 325 327 327 325 322 310 302 286
188 293 336 337 336 335 334 336 337 336 333 332 332 330 329 329 326 325 326 324 325 315 311 314 312 307 304 301 296 294 296 299 304 310 315 318 322 325 328 331 331 330 324 310
329 333 330 329 331 336 337 338 337 336 335 333 331 333 333 333 336 339 337 340 344 344 337 331 326 323 319 314 308 305 305 306 307 309 311 314 314 314 314 316 320 324 329 329